TimePDT,TemperatureF,Dew PointF,Humidity,Sea Level PressureIn,VisibilityMPH,Wind Direction,Wind SpeedMPH,Gust SpeedMPH,PrecipitationIn,Events,Conditions,WindDirDegrees,DateUTC
12:56 AM,48.0,42.1,80,30.03,10.0,WSW,6.9,-,N/A,,Overcast,250,2012-10-30 07:56:00
1:56 AM,48.9,41.0,74,30.00,10.0,East,4.6,-,N/A,,Overcast,90,2012-10-30 08:56:00
3:56 AM,52.0,41.0,66,29.97,10.0,SSE,11.5,-,N/A,,Mostly Cloudy,160,2012-10-30 10:56:00
4:56 AM,50.0,39.9,68,29.97,10.0,South,8.1,-,N/A,,Clear,180,2012-10-30 11:56:00
5:56 AM,48.9,39.9,71,29.99,10.0,Calm,Calm,-,N/A,,Clear,0,2012-10-30 12:56:00
6:56 AM,54.0,39.0,57,29.97,10.0,South,8.1,-,N/A,,Clear,180,2012-10-30 13:56:00
7:56 AM,52.0,39.0,61,29.98,10.0,SSW,6.9,-,N/A,,Clear,200,2012-10-30 14:56:00
8:56 AM,54.0,39.9,59,29.98,10.0,South,10.4,-,N/A,,Partly Cloudy,180,2012-10-30 15:56:00
9:56 AM,57.0,39.9,53,29.97,10.0,SSE,8.1,-,N/A,,Clear,160,2012-10-30 16:56:00
10:56 AM,61.0,41.0,48,29.96,10.0,South,9.2,-,N/A,,Clear,180,2012-10-30 17:56:00
11:56 AM,63.0,41.0,45,29.94,10.0,South,12.7,18.4,N/A,,Clear,180,2012-10-30 18:56:00
12:56 PM,64.0,41.0,43,29.92,10.0,SSW,15.0,20.7,N/A,,Clear,200,2012-10-30 19:56:00
1:56 PM,64.9,42.1,43,29.90,10.0,SSW,17.3,23.0,N/A,,Clear,210,2012-10-30 20:56:00
2:56 PM,66.0,42.1,42,29.88,10.0,SSW,8.1,19.6,N/A,,Clear,200,2012-10-30 21:56:00
3:56 PM,66.9,42.1,40,29.86,10.0,SSW,10.4,18.4,N/A,,Partly Cloudy,210,2012-10-30 22:56:00
4:56 PM,64.9,42.1,43,29.86,10.0,SW,5.8,-,N/A,,Clear,220,2012-10-30 23:56:00
5:56 PM,63.0,42.1,46,29.85,10.0,South,6.9,-,N/A,,Clear,190,2012-10-31 00:56:00
6:56 PM,60.1,41.0,49,29.84,10.0,South,4.6,-,N/A,,Clear,180,2012-10-31 01:56:00
7:56 PM,55.9,41.0,57,29.85,10.0,ESE,3.5,-,N/A,,Clear,120,2012-10-31 02:56:00
9:56 PM,57.9,34.0,41,29.82,10.0,SSE,6.9,-,N/A,,Clear,160,2012-10-31 04:56:00
10:56 PM,59.0,32.0,36,29.81,10.0,SSE,8.1,-,N/A,,Clear,160,2012-10-31 05:56:00
11:56 PM,59.0,30.9,35,29.80,10.0,SSE,5.8,-,N/A,,Clear,160,2012-10-31 06:56:00